Regional Weather Roundup
Issued by NWS Charleston, SC

Current Version | Previous Version | Graphics & Text | Print | Product List | Glossary On
Versions: 1 2 3 4 5 6 7 8 9 10 11 12 13 14 15 16 17 18 19 20 21 22 23 24 25 26 27 28 29 30 31 32 33 34 35 36 37 38 39 40 41 42 43 44 45 46 47 48 49 50
000 ASUS42 KCHS 230625 RWRCHS REGIONAL WEATHER ROUNDUP NATIONAL WEATHER SERVICE CHARLESTON SC 200 AM EDT SAT AUG 23 2014 NOTE: "FAIR" INDICATES FEW OR NO CLOUDS BELOW 12,000 FEET WITH NO SIGNIFICANT WEATHER AND/OR OBSTRUCTIONS TO VISIBILITY. NOT ALL STATIONS ARE QUALITY CONTROLLED BY THE NATIONAL WEATHER SERVICE. USE DATA WITH CAUTION...ESPECIALLY DEWPOINT OBSERVATIONS. SCZ027-030-031-034>040-042>050-230700- ...SOUTH CAROLINA... CITY SKY/WX TMP DP RH WIND PRES REMARKS N CHARLESTON FAIR 84 78 82 SW7 29.94S HX 95 6HR MIN TEMP: 83; 6HR MAX TEMP: 89; WATERFRONT PRK N/A 86 N/A N/A SW6 N/A FORT JOHNSON NOT AVBL MOUNT PLEASANT FAIR 82 79 89 SW3 29.93F HX 93 JOHNS ISLAND CLEAR 84 81 89 CALM 29.94F HX 98 PINOPOLIS N/A 84 79 84 SW7 29.87R HX 96 MONCKS CORNER N/A 81 79 94 CALM 29.93F SUMMERVILLE FAIR 79 79 100 CALM 29.95S BEAUFORT MCAS FAIR 82 76 81 SW3 29.94F 6HR MIN TEMP: 82; 6HR MAX TEMP: 90; BEAUFORT ARPT FAIR 82 77 83 SW3 29.93F HX 91 HILTON HEAD IS FAIR 82 77 83 S6 29.95F HX 91 GEORGETOWN NOT AVBL WALTERBORO FAIR 81 N/A N/A SW3 29.95F ORANGEBURG FAIR 78 73 84 CALM 29.95S 6HR MIN TEMP: 77; 6HR MAX TEMP: 88; BARNWELL FAIR 77 73 88 CALM 29.96S AIKEN FAIR 79 72 78 CALM 30.00F MANNING FAIR 77 N/A N/A CALM 29.93F KINGSTREE NOT AVBL COLUMBIA FAIR 81 71 71 CALM 29.94F 6HR MIN TEMP: 78; 6HR MAX TEMP: 95; SUMTER FAIR 81 73 77 NW5 29.93F 6HR MIN TEMP: 80; 6HR MAX TEMP: 91; FLORENCE FAIR 78 74 87 CALM 29.93F 6HR MIN TEMP: 78; 6HR MAX TEMP: 88; MYRTLE BEACH FAIR 82 77 83 CALM 29.93F HX 91 N MYRTLE BEACH FAIR 83 79 88 S5 29.93F HX 94 6HR MIN TEMP: 83; 6HR MAX TEMP: 86; $$ GAZ063-065-086>088-099>101-113>116-118-119-134-136>141-150-230700- ...GEORGIA... CITY SKY/WX TMP DP RH WIND PRES REMARKS SAVANNAH ARPT FAIR 82 74 76 SW3 29.95F 6HR MIN TEMP: 82; 6HR MAX TEMP: 93; HUNTER AAF FAIR 82 74 77 SW6 29.93F 6HR MIN TEMP: 82; 6HR MAX TEMP: 89; FORT STEWART FAIR 81 73 78 SW2 29.94F HAZE 6HR MIN TEMP: 80; 6HR MAX TEMP: 89; STATESBORO NOT AVBL SYLVANIA FAIR 76 75 97 CALM 29.95F CLAXTON FAIR 77 77 100 CALM 29.95F THOMSON FAIR 76 76 100 CALM 30.01F AUGUSTA-BUSH FAIR 73 72 96 CALM 29.95F 6HR MIN TEMP: 73; 6HR MAX TEMP: 92; AUGUSTA-DANIEL FAIR 85 70 60 NW7 29.97F SWAINSBORO FAIR 77 75 94 CALM 29.98S VIDALIA N/A 79 73 83 CALM 29.97S ALMA FAIR 77 74 90 CALM 29.96F 6HR MIN TEMP: 77; 6HR MAX TEMP: 91; WAYCROSS FAIR 82 75 80 CALM 29.97S JESUP N/A 81 77 89 CALM 29.96F BRUNSWICK FAIR 82 72 69 SW5 29.96F SAINT SIMONS FAIR 82 73 74 SW7 29.96F 6HR MIN TEMP: 82; 6HR MAX TEMP: 86; $$ SCZ027-028-034-036>038-045-046-048>050-GAZ119-141-230700- ...LAKE AND SUPPLEMENTAL COASTAL OBSERVATIONS... STATION/POSITION TIME TEMP WIND PRES WAVE SWELL AIR SEA DIR/SP/G HT/PER HT/PER/DIR (UTC) (F) (DEG/KT/KT) (MB) (FT/S) (FT/S/D) UPR LAKE MARION NOT AVBL WINYAH BAY 0600 83 230/ 4 1013.0S LAKE MURRAY 0600 83 290/ 3/ 5 1013.5F ACE BASIN NERRS 0600 81 CALM 1014.0S FORT PULASKI 0600 83 210/ 4/ 6 1014.3F SAPELO ISLAND 0600 81 200/ 4 1015.0S $$ ANZ835-935-AMZ111-154-330-350-352-354-374-450-454-472-230700- ...C-MAN AND BUOY OBSERVATIONS... STATION/POSITION TIME TEMP WIND PRES WAVE SWELL AIR SEA DIR/SP/G HT/PER HT/PER/DIR (UTC) (F) (DEG/KT/KT) (MB) (FT/S) (FT/S/D) FOLLY BEACH CMAN 0600 86 230/ 9/ 12 1014.2F BUOY 41004 0600 85 85 220/ 10/ 12 1013.5F 2/ 9 2/ 9 BUOY 41008 0600 86 85 220/ 12/ 16 1014.4F 2/ 3 5E ST. MARYS GA 0600 83 N/A 1/ 9 FRYING PAN BUOY NOT AVBL BUOY 41025 0600 78 320/ 8/ 10 1013.2F 2/ 8 2/ 20/ 8 CAPE LOOKOUT NC 0600 80 30/ 6/ 7 1013.0F BUOY 41002 0531 82 82 250/ 16/ 17 1014.7F 3/ 5 2/140/ 8 BUOY 41010 0600 84 86 190/ 6/ 8 1015.8F 2/ 6 2/140/ 6 BUOY 41012 NOT AVBL ST AUGUSTINE FL 0600 79 250/ 5/ 6 1015.9F CAPERS NEARSHORE 0500 86 230/ 12/ 14 N/A FRIPP NEARSHORE NOT AVBL $$

USA.gov is the U.S. government's official web portal to all federal, state and local government web resources and services.